RH
94 100 100 100 97 97 83 80 73 68 92 98 86 74 84 74 80 87 91 97 93 91 90 88 89 89 90
100 100 100 100 92 100 97 80 73 72 88 100 89 75 74 76 80 87 89 88 93 92 88 86 85 87 88
100 100 100 100 100 99 97 93 81 78 83 99 93 80 69 74 78 86 91 77 88 86 84 84 81 84 83
99 99 100 100 100 98 99 98 100 86 82 91 99 86 77 69 73 82 92 76 78 78 74 63 65 81 83
96 98 99 100 98 98 97 99 99 96 100 100 100 96 85 73 69 74 80 88 62 67 61 51 39 41 52
89 95 99 95 97 97 96 98 96 100 100 100 100 100 95 82 72 70 74 80 71 51 54 48 31 30 31
88 89 98 98 98 98 95 94 90 98 98 99 100 100 100 92 77 74 76 70 70 50 49 43 32 28 30
87 99 94 99 100 99 95 91 86 96 94 95 100 99 100 98 83 78 79 78 70 63 67 60 37 30 30
80 84 89 91 100 100 99 94 95 99 98 81 100 99 100 100 96 85 83 82 77 69 66 66 69 67 38
75 73 71 79 78 99 99 97 90 95 98 88 100 98 100 100 100 95 91 88 83 77 72 67 69 61 66
79 86 93 89 74 82 95 100 90 82 97 88 99 99 94 99 100 100 100 97 94 89 80 70 71 68 70
78 78 83 92 90 91 91 96 99 83 80 86 93 97 95 100 98 100 100 100 100 99 92 79 80 76 74
84 82 80 85 94 93 98 96 97 89 81 88 86 99 95 91 97 100 100 100 100 100 100 96 91 85 86
83 82 81 81 93 97 97 99 100 100 90 95 91 98 100 93 98 99 99 97 100 100 100 100 100 94 88
85 82 83 89 84 95 98 96 99 99 100 100 100 97 96 96 100 100 100 100 100 100 100 100 100 99 99
90 83 82 97 93 91 94 96 98 99 99 100 100 100 100 100 96 100 100 100 100 100 100 100 100 100 100
86 82 82 82 97 92 91 99 99 98 99 100 100 98 100 97 99 100 98 100 99 100 100 99 99 99 99
Wind_Speed
17 30 42 43 51 46 51 50 45 41 41 41 41 37 34 31 28 27 26 22 19 18 16 14 12 10 10
9 28 38 47 56 42 45 51 48 44 44 42 42 41 36 32 30 28 26 23 21 19 17 15 13 11 10
11 18 29 40 46 41 43 41 46 47 44 42 43 42 40 35 32 30 27 25 24 22 20 17 14 13 11
13 16 25 32 44 38 34 37 37 47 44 44 45 44 41 39 36 33 31 27 27 24 22 19 17 15 12
16 16 21 31 33 35 36 35 35 43 42 46 48 47 45 42 39 36 34 31 28 27 23 19 16 15 13
15 17 11 34 40 39 37 33 18 34 38 36 47 44 47 48 44 37 32 34 31 27 24 21 19 17 15
18 22 18 20 32 36 38 41 32 32 40 32 44 40 44 48 46 42 37 34 33 29 25 23 20 19 16
27 22 23 23 2 30 44 50 40 38 46 29 38 35 43 48 50 46 42 39 36 31 26 22 21 20 18
26 23 28 31 24 9 27 36 24 27 45 28 25 28 36 40 49 49 46 44 41 37 32 27 21 17 19
20 24 31 37 39 28 15 27 33 16 38 29 29 28 9 30 43 52 50 47 45 41 38 33 29 27 25
19 18 21 26 38 38 39 22 34 25 36 41 30 33 19 11 28 44 50 49 49 45 41 37 35 33 29
23 22 23 24 31 30 38 36 29 39 39 56 31 43 32 14 16 35 43 45 51 49 46 42 38 35 32
25 24 24 23 23 24 29 31 28 38 42 60 42 47 40 28 24 28 35 39 45 46 47 48 46 42 36
28 24 24 26 24 25 27 28 28 32 40 51 47 44 35 34 32 27 38 27 44 44 46 46 46 47 46
29 27 26 25 28 24 31 30 27 28 30 42 44 42 42 41 28 33 37 32 40 41 41 40 45 49 49
31 29 29 24 25 27 29 34 28 30 32 34 36 33 21 25 35 31 33 35 36 42 40 35 34 43 47
33 32 30 31 25 26 29 26 29 33 35 34 40 38 12 12 21 36 38 35 37 35 41 39 34 41 47
Wind_Direction
228 194 171 174 182 182 183 184 188 194 191 189 185 184 187 192 189 187 190 176 171 168 167 165 159 150 138
214 188 175 178 181 179 182 184 188 193 193 192 189 186 190 194 195 196 201 183 176 175 174 173 167 161 151
301 192 183 174 173 176 180 181 187 191 194 196 192 190 192 195 199 202 206 193 185 186 184 180 175 169 165
273 292 180 175 173 170 175 180 179 188 194 198 197 195 194 197 202 204 206 203 193 193 193 191 187 177 176
252 262 201 176 182 175 175 173 182 183 185 189 194 195 198 202 204 210 211 206 202 200 203 200 195 194 189
244 243 272 188 180 178 175 171 174 191 180 183 191 191 196 201 206 207 210 207 206 207 206 204 199 201 199
238 241 249 201 185 182 178 180 186 182 183 183 187 192 197 201 206 210 206 205 207 208 209 207 205 204 205
244 252 244 254 183 198 184 189 189 185 184 187 190 191 195 202 208 210 210 207 206 206 207 214 208 208 209
244 250 256 248 252 281 205 184 179 182 187 188 188 187 189 196 207 212 211 211 209 210 209 209 218 220 215
241 248 251 253 245 248 234 203 178 177 192 184 170 174 160 197 203 209 212 214 213 212 212 206 206 200 201
240 239 241 250 247 245 241 232 205 188 185 184 178 180 184 167 190 203 205 208 212 214 215 210 209 210 204
234 233 236 236 237 237 242 243 236 208 194 187 189 184 185 154 177 194 201 203 205 208 210 213 214 216 219
228 229 231 238 243 235 235 240 238 214 210 193 194 189 189 192 178 185 185 199 200 200 203 205 206 211 211
227 231 235 235 239 230 226 228 220 219 210 197 197 191 189 195 187 181 191 185 195 198 201 203 207 213 216
228 224 230 230 233 241 225 226 213 199 190 194 197 200 199 190 181 188 185 192 193 192 192 195 204 212 217
225 223 221 224 227 226 239 214 222 194 188 185 181 175 184 195 200 186 185 189 191 193 194 194 200 208 215
219 223 224 220 225 226 226 237 208 200 188 179 178 181 183 190 194 203 186 188 185 190 194 200 201 206 212